Flag for Greenland Weather past 2 weeks in Qaanaaq, Greenland

Now
-2 °F

Overcast.


Feels Like: -2 °F
Forecast: -18 / -10 °F
Wind: 2 mph from Northwest

Location: Thule A. B.

Current Time: Dec 26, 2014 at 11:26:36 AM

Latest Report: Dec 26, 2014 at 10:58 AM


Visibility: N/A

Pressure: 30.32 "Hg

Humidity: 84%

Dew point: -6 °F

Location of QaanaaqLocation

Historic Weather in Qaanaaq — Graph

°F

Qaanaaq temperature yesterday

Maximum temperature yesterday: 1 °F (at 8:58 PM)
Minimum temperature yesterday: -15 °F (at 12:58 AM)
Average temperature yesterday: -7 °F

Past Weeks' High & Low Weather Summary

 TemperatureHumidityPressure
High14 °F (Dec 11, 7:58 PM)84% (Dec 24, 8:58 AM)30.35 "Hg (Dec 24, 8:58 AM)
Low-22 °F (Dec 18, 8:58 AM)39% (Dec 12, 4:58 AM)29.17 "Hg (Dec 12, 10:58 AM)
Average-9 °F68%29.75 "Hg
* Reported Dec 11 9:03 AM — Dec 26 9:58 AM, Qaanaaq, Weather by CustomWeather, © 2014

Note: Actual official high and low records may vary slightly from our data, if they occured in-between our weather recording intervals... More about our weather records

Advertising

Qaanaaq weather history for previous 24 hours

 ConditionsComfort  
Time TempWeatherWind HumidityBarometerVisibility
9:58 AM
Dec 26
-2 °FLight snow. Overcast.No wind84%30.33 "Hg6 mi
8:58 AM-2 °FLight snow. Overcast.No wind71%30.33 "Hg3 mi
7:58 AM-2 °FPassing clouds.10 mph59%30.34 "HgN/A
6:58 AM-2 °FOvercast.No wind59%30.34 "HgN/A
5:58 AM-2 °FOvercast.14 mph65%30.33 "HgN/A
4:58 AM0 °FOvercast.8 mph71%30.33 "HgN/A
4:04 AM0 °FOvercast.2 mph78%30.35 "Hg5 mi
3:58 AM0 °FLight snow. Overcast.5 mph84%30.32 "Hg4 mi
2:58 AM0 °FOvercast.3 mph78%30.32 "Hg6 mi
1:59 AM0 °FOvercast.13 mph71%30.33 "Hg6 mi
12:58 AM1 °FOvercast.14 mph71%30.29 "Hg4 mi
11:58 PM
Dec 25
0 °FOvercast.1 mph78%30.27 "Hg4 mi
10:58 PM-4 °FPassing clouds.6 mph84%30.27 "Hg5 mi
10:02 PM-4 °FPassing clouds.5 mph84%30.27 "HgN/A
9:58 PM-4 °FPassing clouds.5 mph77%30.24 "HgN/A
8:58 PM1 °FScattered clouds.No wind78%30.23 "HgN/A
7:58 PM0 °FMostly cloudy.10 mph78%30.22 "Hg5 mi
7:00 PM-2 °FOvercast.10 mph84%30.24 "Hg3 mi
6:58 PM-2 °FOvercast.12 mph77%30.22 "Hg2 mi
5:58 PM-6 °FOvercast.8 mph77%30.20 "Hg4 mi
4:58 PM-2 °FOvercast.7 mph77%30.18 "Hg4 mi
3:58 PM-2 °FOvercast.7 mph77%30.16 "Hg4 mi
2:59 PM-4 °FScattered clouds.8 mph77%30.18 "HgN/A
1:58 PM-4 °FPassing clouds.13 mph71%30.13 "HgN/A
12:58 PM-4 °FSunny.7 mph71%30.12 "HgN/A
11:58 AM-9 °FPassing clouds.8 mph77%30.10 "HgN/A
Weather by CustomWeather, © 2014

See weather overviewHow to use our weather pages